STARLINK-1743 (46568 NORAD) Tracking and Keplerian Element Data

This shows tracking and keplerian element data for the satellite.

Feedback or suggestion? Click here.




ElementValue
Catalog46568
NameSTARLINK-1743
Epoch Orbit459
Epoch Day304.50002315
Epoch Year2020
RAAN323.8975
Inclination52.9995
Eccentricity0.0001055
Argument of Perigee56.154
Mean Anonmoly54.0271
Mean Motion15.62676787
Decay Rate0.00089239
L11 46568U 20070AN 20304.50002315 .00089239 00000-0 97261-3 0 9992
L22 46568 52.9995 323.8975 0001055 56.1540 54.0271 15.62676787 4591

Live tracking and technical data element details for STARLINK-1743 (NORAD 46568). STARLINK-1743 can be tracked NOW for your location showing map with azimuth and elevation plus other details from your city location.

Track the satellite on the map from your city or location and see movement details for azimuth, elevation, latitude, longitude, range, height, and movement on the map or in text.







IsCatalogInMostPopularTable: catalog: 46568, numindb: 2
Update: records affected: 1



GetName: 46568 STARLINK-1743

Hit Count: updated at: Sat, 31 Oct 2020 06:51:55 GMT